DW1806 Weather Reports


Display with metric or nautical units.
time (UTC)temp
F
wind
direction
speed
MPH
gust
MPH
rain 1hr
in
rain 24hr
in
rain mn
in
humidity
%
barometer
mb
20260503184537 54 221 0.0 0.0 0.00 0.00 0.00 50 1010.0
20260503184035 54 280 0.0 0.0 0.00 0.00 0.00 48 1009.9
20260503183535 54 246 0.0 0.0 0.00 0.00 0.00 48 1010.0
20260503183033 54 257 0.0 0.0 0.00 0.00 0.00 47 1010.0
20260503182534 54 211 0.0 0.0 0.00 0.00 0.00 46 1010.1
20260503182032 54 207 0.0 0.0 0.00 0.00 0.00 45 1010.2
20260503181544 54 273 0.0 0.0 0.00 0.00 0.00 45 1010.3
20260503181031 54 274 0.0 0.0 0.00 0.00 0.00 45 1010.3
20260503180530 53 235 0.0 0.0 0.00 0.00 0.00 46 1010.4
20260503180030 53 215 0.0 0.0 0.00 0.00 0.00 45 1010.5
20260503175528 53 186 0.0 0.0 0.00 0.00 0.00 44 1010.5
20260503175029 53 239 0.0 0.0 0.00 0.00 0.00 51 1010.5
20260503174526 52 161 0.0 0.0 0.00 0.00 0.00 52 1010.6
20260503174025 51 225 0.0 0.0 0.00 0.00 0.00 53 1010.8
20260503173524 50 171 0.0 0.0 0.00 0.00 0.00 55 1011.1
20260503173023 50 212 0.0 0.0 0.00 0.00 0.00 57 1011.1
20260503172522 50 236 0.0 0.0 0.00 0.00 0.00 58 1011.2
20260503172022 50 193 0.0 0.0 0.00 0.00 0.00 58 1011.2
20260503171522 51 239 0.0 0.0 0.00 0.00 0.00 61 1011.2
20260503171021 51 240 0.0 0.0 0.00 0.00 0.00 59 1011.2
20260503170524 51 278 0.0 0.0 0.00 0.00 0.00 62 1011.4
20260503150512 50 199 0.0 0.0 0.00 0.00 0.00 53 1012.5
20260503131057 46 266 0.0 0.0 0.00 0.00 0.00 74 1012.8
20260503130556 46 252 0.0 0.0 0.00 0.00 0.00 74 1012.8
20260503110542 34 201 0.0 0.0 0.00 0.00 0.00 83 1012.9
20260503081539 34 207 0.0 0.0 0.00 0.00 0.00 83 1013.3
20260503081031 34 207 0.0 0.0 0.00 0.00 0.00 83 1013.3
20260503080531 34 207 0.0 0.0 0.00 0.00 0.00 84 1013.4
20260503072528 33 207 0.0 0.0 0.00 0.00 0.00 85 1013.2
20260503072028 33 207 0.0 0.0 0.00 0.00 0.00 85 1013.2
20260503071530 33 207 0.0 0.0 0.00 0.00 0.00 85 1013.1
20260503071027 33 207 0.0 0.0 0.00 0.00 0.00 85 1013.0
20260503070526 33 207 0.0 0.0 0.00 0.00 0.00 85 1013.0
20260503055020 34 207 0.0 0.0 0.00 0.00 0.00 81 1013.4
20260503054516 34 207 0.0 0.0 0.00 0.00 0.00 81 1013.5
20260503054014 34 207 0.0 0.0 0.00 0.00 0.00 80 1013.4
20260503053513 35 207 0.0 0.0 0.00 0.00 0.00 80 1013.4
20260503053012 35 207 0.0 0.0 0.00 0.00 0.00 80 1013.5
20260503052511 35 207 0.0 0.0 0.00 0.00 0.00 80 1013.5
20260503052010 35 207 0.0 0.0 0.00 0.00 0.00 79 1013.6
20260503051509 35 207 0.0 0.0 0.00 0.00 0.00 79 1013.6
20260503051008 36 207 0.0 0.0 0.00 0.00 0.00 78 1013.6
20260503050507 36 207 0.0 0.0 0.00 0.00 0.00 78 1013.7
20260503050006 36 207 0.0 0.0 0.00 0.00 0.00 77 1013.6
20260503045506 37 207 0.0 0.0 0.00 0.00 0.00 77 1013.8
20260503045005 37 207 0.0 0.0 0.00 0.00 0.00 76 1013.8
20260503044505 37 207 0.0 0.0 0.00 0.00 0.00 76 1013.8
20260503044003 38 207 0.0 0.0 0.00 0.00 0.00 75 1013.8
20260503043502 38 207 0.0 0.0 0.00 0.00 0.00 74 1013.8
20260503043100 39 207 0.0 0.0 0.00 0.00 0.00 74 1013.8
20260503042559 39 207 0.0 0.0 0.00 0.00 0.00 73 1013.8
20260503042058 39 207 0.0 0.0 0.00 0.00 0.00 73 1013.8
20260503041558 40 207 0.0 0.0 0.00 0.00 0.00 73 1013.9
20260503041100 40 207 0.0 0.0 0.00 0.00 0.00 72 1014.0
20260503040556 40 207 0.0 0.0 0.00 0.00 0.00 72 1014.0
20260503040056 40 207 0.0 0.0 0.00 0.00 0.00 72 1013.9
20260503035555 40 207 0.0 0.0 0.00 0.00 0.01 72 1013.9
20260503035055 41 207 0.0 0.0 0.00 0.00 0.01 72 1014.0
20260503034554 41 207 0.0 0.0 0.00 0.00 0.01 72 1013.9
20260503034054 41 207 0.0 0.0 0.00 0.00 0.01 72 1013.9
20260503033553 41 207 0.0 0.0 0.00 0.00 0.01 72 1013.9
20260503033056 41 207 0.0 0.0 0.00 0.00 0.01 72 1013.9
20260503032553 41 207 0.0 0.0 0.00 0.00 0.01 72 1014.0
20260503032053 41 207 0.0 0.0 0.00 0.00 0.01 72 1013.9
20260503031553 41 207 0.0 0.0 0.00 0.00 0.01 72 1013.9
20260503031053 41 207 0.0 0.0 0.00 0.00 0.01 71 1013.9
20260503030553 41 207 0.0 0.0 0.00 0.00 0.01 71 1013.9
20260503030052 41 207 0.0 0.0 0.00 0.00 0.01 71 1014.0
20260503025552 41 207 0.0 0.0 0.00 0.00 0.01 71 1014.0
20260503025052 41 207 0.0 0.0 0.00 0.00 0.01 71 1014.1
20260503024552 42 207 0.0 0.0 0.00 0.00 0.01 70 1014.2
20260503024052 42 207 0.0 0.0 0.00 0.00 0.01 70 1014.2
20260503023552 42 207 0.0 0.0 0.00 0.00 0.01 70 1014.3
20260503023055 42 207 0.0 0.0 0.00 0.00 0.01 70 1014.2
20260503022550 42 207 0.0 0.0 0.00 0.00 0.01 69 1014.3
20260503022050 42 217 0.0 0.0 0.00 0.00 0.01 69 1014.3
20260503021552 42 217 0.0 0.0 0.00 0.00 0.01 69 1014.3
20260503021050 42 217 0.0 0.0 0.00 0.00 0.01 69 1014.4
20260503020551 42 217 0.0 0.0 0.00 0.00 0.01 68 1014.5
20260503020051 42 217 0.0 0.0 0.00 0.00 0.01 68 1014.4
20260503015550 42 217 0.0 0.0 0.00 0.00 0.01 69 1014.3
20260503015049 42 217 0.0 0.0 0.00 0.00 0.01 70 1014.3
20260503014600 42 217 0.0 0.0 0.00 0.00 0.01 70 1014.3
20260503014049 42 220 0.0 0.0 0.00 0.00 0.01 70 1014.3
20260503013549 42 261 0.0 0.0 0.00 0.00 0.01 70 1014.3
20260503013049 42 268 0.0 0.0 0.00 0.00 0.01 70 1014.5
20260503012549 42 285 0.0 0.0 0.00 0.00 0.01 70 1014.5
20260503012049 42 244 0.0 0.0 0.00 0.00 0.01 70 1014.5
20260503011551 42 235 0.0 0.0 0.00 0.00 0.01 69 1014.5
20260503011048 42 261 0.0 0.0 0.00 0.00 0.01 69 1014.5
20260503010553 42 277 0.0 0.0 0.00 0.00 0.01 69 1014.4
20260503010051 42 260 0.0 0.0 0.00 0.00 0.01 69 1014.3
20260503005548 42 228 0.0 0.0 0.00 0.00 0.01 69 1014.3
20260503005047 42 241 0.0 0.0 0.00 0.00 0.01 68 1014.3
20260503004550 42 244 0.0 0.0 0.00 0.00 0.01 68 1014.3
20260503004047 42 249 0.0 0.0 0.00 0.00 0.01 67 1014.2
20260503003548 42 204 0.0 0.0 0.00 0.00 0.01 67 1014.2
20260503003048 42 245 0.0 0.0 0.00 0.00 0.01 67 1014.2
20260503002547 42 245 0.0 0.0 0.00 0.00 0.01 67 1014.1
20260503002047 42 245 0.0 0.0 0.00 0.00 0.01 67 1014.0
20260503001550 42 276 0.0 0.0 0.00 0.00 0.01 67 1014.1
20260503001047 42 256 0.0 0.0 0.00 0.00 0.01 66 1014.0
20260503000547 43 234 0.0 0.0 0.00 0.00 0.01 66 1014.0
20260503000046 43 269 0.0 0.0 0.00 0.00 0.01 66 1013.9
20260502235548 43 269 0.0 0.0 0.00 0.00 0.01 66 1014.0
20260502235046 43 273 0.0 0.0 0.00 0.00 0.01 66 1013.9
20260502234553 43 256 0.0 0.0 0.00 0.00 0.01 65 1013.8
20260502234047 43 265 0.0 0.0 0.00 0.00 0.01 65 1013.9
20260502233547 43 259 0.0 0.0 0.00 0.00 0.01 64 1013.8
20260502233046 43 264 0.0 0.0 0.00 0.00 0.01 64 1013.9
20260502232545 43 237 0.0 0.0 0.00 0.00 0.01 63 1013.9
20260502232045 43 212 0.0 0.0 0.00 0.00 0.01 63 1013.8
20260502231545 43 271 0.0 0.0 0.00 0.00 0.01 63 1013.7
20260502231045 43 288 0.0 0.0 0.00 0.00 0.01 63 1013.6
20260502230545 43 242 0.0 0.0 0.00 0.00 0.01 63 1013.7
20260502230046 43 239 0.0 0.0 0.00 0.00 0.01 64 1013.7
20260502225544 43 288 0.0 0.0 0.00 0.00 0.01 65 1013.7
20260502225045 43 254 0.0 0.0 0.00 0.00 0.01 63 1013.7
20260502224547 43 245 0.0 0.0 0.00 0.00 0.01 64 1013.8
20260502224045 43 277 0.0 0.0 0.00 0.00 0.01 63 1013.7
20260502223545 44 264 0.0 0.0 0.00 0.00 0.01 64 1013.7
20260502223045 44 235 0.0 0.0 0.00 0.00 0.01 64 1013.7
20260502222544 44 266 0.0 0.0 0.00 0.00 0.01 64 1013.7
20260502222043 44 236 0.0 0.0 0.00 0.00 0.01 63 1013.7
20260502221543 44 198 0.0 0.0 0.00 0.00 0.01 63 1013.8
20260502221044 44 265 0.0 0.0 0.00 0.00 0.01 64 1013.8
20260502220544 44 243 0.0 0.0 0.00 0.00 0.01 64 1013.7
20260502220044 44 272 0.0 0.0 0.00 0.00 0.01 64 1013.7
20260502215544 44 271 0.0 0.0 0.00 0.00 0.01 64 1013.7
20260502215043 43 263 0.0 0.0 0.00 0.00 0.01 63 1013.9
20260502214554 44 308 0.0 0.0 0.00 0.00 0.01 64 1013.8
20260502214043 44 242 0.0 0.0 0.00 0.00 0.01 64 1013.7
20260502213543 44 260 0.0 0.0 0.00 0.00 0.01 64 1013.7
20260502213042 43 267 0.0 0.0 0.00 0.00 0.01 64 1013.7
20260502212543 44 284 0.0 0.0 0.00 0.00 0.01 64 1013.6
20260502212043 44 271 0.0 0.0 0.00 0.00 0.01 64 1013.7
20260502211543 44 216 0.0 0.0 0.00 0.00 0.01 65 1013.7
20260502211042 44 273 0.0 0.0 0.00 0.00 0.01 66 1013.6
20260502210542 44 255 0.0 0.0 0.00 0.00 0.01 66 1013.6
20260502210049 44 263 0.0 0.0 0.00 0.00 0.01 66 1013.6
20260502205542 44 266 0.0 0.0 0.00 0.00 0.01 66 1013.6
20260502205042 44 278 0.0 0.0 0.00 0.00 0.01 67 1013.6
20260502204550 44 221 0.0 0.0 0.00 0.00 0.01 68 1013.7
20260502204041 43 244 0.0 0.0 0.00 0.00 0.01 68 1013.6
20260502203542 42 262 0.0 0.0 0.00 0.00 0.01 69 1013.8
20260502203046 42 254 0.0 0.0 0.00 0.00 0.01 69 1013.8
20260502202540 42 199 0.0 0.0 0.00 0.00 0.01 69 1013.9
20260502202043 42 227 0.0 0.0 0.00 0.00 0.01 68 1014.0
20260502201540 42 232 0.0 0.0 0.00 0.00 0.01 67 1013.9
20260502201042 42 244 0.0 0.0 0.00 0.00 0.01 66 1014.0
20260502200540 43 269 0.0 0.0 0.00 0.00 0.01 65 1014.0
20260502200044 43 232 0.0 0.0 0.00 0.00 0.01 66 1014.1
20260502195539 42 196 0.0 0.0 0.00 0.00 0.01 66 1014.0
20260502195039 42 249 0.0 0.0 0.00 0.00 0.01 66 1014.1
20260502194539 42 271 0.0 0.0 0.00 0.00 0.01 66 1014.1
20260502194039 42 188 0.0 0.0 0.00 0.00 0.01 66 1014.2
20260502193539 42 230 0.0 0.0 0.00 0.00 0.01 67 1014.1
20260502193040 42 232 0.0 0.0 0.00 0.00 0.01 67 1014.2
20260502192539 42 230 0.0 0.0 0.00 0.00 0.01 67 1014.3
20260502192038 42 223 0.0 0.0 0.00 0.00 0.01 67 1014.3
20260502191542 42 265 0.0 0.0 0.00 0.00 0.01 68 1014.3
20260502191038 42 209 0.0 0.0 0.00 0.00 0.01 69 1014.3
20260502190538 42 249 0.0 0.0 0.00 0.00 0.01 69 1014.2
20260502190043 42 246 0.0 0.0 0.00 0.00 0.01 69 1014.3
20260502185538 42 240 0.0 0.0 0.00 0.00 0.01 69 1014.2
20260502185038 42 213 0.0 0.0 0.00 0.00 0.01 69 1014.2